When you browse on this site, cookies collect data to enhance your experience and personalize the content and advertising you see.
Visit our Privacy Policy to learn more. By continuing to use the site, you agree to this use of cookies and data.
  • In Hungary
  • List of Countries
  • For 7 days
  • Water Temperature
  • Satellite Maps
  • Weather Map
  • News
  • Weather Widgets
  • user-avatar
    Login

    Hourly Weather Mary

    Today, 22 April, Monday

    Time Temperature Precipitation Wind Pressure Humidity
    00:00 +16°C° 0 mm 3 mps 745 mmHg 42%
    01:00 +14°C° 0 mm 3 mps 745 mmHg 43%
    02:00 +14°C° 0 mm 3 mps 744 mmHg 44%
    03:00 +14°C° 0 mm 3 mps 744 mmHg 45%
    04:00 +13°C° 0 mm 3 mps 744 mmHg 46%
    05:00 +14°C° 0 mm 4 mps 744 mmHg 45%
    06:00 +14°C° 0 mm 4 mps 744 mmHg 44%
    07:00 +14°C° 0 mm 5 mps 744 mmHg 43%
    08:00 +15°C° 0 mm 5 mps 744 mmHg 40%
    09:00 +16°C° 0 mm 5 mps 744 mmHg 37%
    10:00 +17°C° 0 mm 5 mps 744 mmHg 35%
    11:00 +19°C° 0 mm 5 mps 743 mmHg 33%
    12:00 +20°C° 0 mm 5 mps 743 mmHg 31%
    13:00 +21°C° 0 mm 5 mps 742 mmHg 29%
    14:00 +21°C° 0 mm 5 mps 742 mmHg 29%
    15:00 +21°C° 0 mm 5 mps 741 mmHg 28%
    16:00 +22°C° 0 mm 5 mps 741 mmHg 28%
    17:00 +21°C° 0 mm 5 mps 740 mmHg 29%
    18:00 +20°C° 0 mm 5 mps 740 mmHg 30%
    19:00 +20°C° 0 mm 4 mps 739 mmHg 31%
    20:00 +20°C° 0 mm 4 mps 739 mmHg 32%
    21:00 +19°C° 0 mm 4 mps 739 mmHg 33%
    22:00 +19°C° 0 mm 3 mps 739 mmHg 33%
    23:00 +19°C° 0 mm 3 mps 739 mmHg 35%

    Tomorrow, 23 April, Tuesday

    Time Temperature Precipitation Wind Pressure Humidity
    00:00 +18°C° 0 mm 4 mps 738 mmHg 36%
    01:00 +17°C° 0 mm 4 mps 738 mmHg 38%
    02:00 +17°C° 0 mm 4 mps 738 mmHg 39%
    03:00 +15°C° 0 mm 4 mps 737 mmHg 40%
    04:00 +15°C° 0 mm 5 mps 737 mmHg 41%
    05:00 +15°C° 0 mm 5 mps 737 mmHg 40%
    06:00 +16°C° 0 mm 5 mps 737 mmHg 38%
    07:00 +16°C° 0 mm 5 mps 738 mmHg 37%
    08:00 +19°C° 0 mm 5 mps 738 mmHg 35%
    09:00 +20°C° 0 mm 4 mps 738 mmHg 32%
    10:00 +21°C° 0 mm 4 mps 739 mmHg 29%
    11:00 +22°C° 0 mm 5 mps 739 mmHg 28%
    12:00 +23°C° 0 mm 6 mps 739 mmHg 27%
    13:00 +24°C° 0 mm 6 mps 739 mmHg 26%
    14:00 +24°C° 0 mm 7 mps 739 mmHg 26%
    15:00 +23°C° 0 mm 8 mps 739 mmHg 27%
    16:00 +23°C° 0 mm 9 mps 739 mmHg 27%
    17:00 +21°C° 0 mm 9 mps 739 mmHg 31%
    18:00 +19°C° 0 mm 9 mps 740 mmHg 35%
    19:00 +17°C° 0 mm 9 mps 741 mmHg 40%
    20:00 +17°C° 0.2 mm 9 mps 742 mmHg 44%
    21:00 +16°C° 0.2 mm 9 mps 742 mmHg 49%
    22:00 +15°C° 0.2 mm 9 mps 743 mmHg 54%
    23:00 +13°C° 0.2 mm 9 mps 743 mmHg 54%

    Day after tomorrow, 24 April, Wednesday

    Time Temperature Precipitation Wind Pressure Humidity
    00:00 +13°C° 0.2 mm 10 mps 743 mmHg 54%
    01:00 +13°C° 0.2 mm 10 mps 744 mmHg 54%
    02:00 +12°C° 0.4 mm 9 mps 744 mmHg 53%
    03:00 +12°C° 0.4 mm 8 mps 745 mmHg 53%
    04:00 +12°C° 0.4 mm 7 mps 745 mmHg 53%
    05:00 +11°C° 0 mm 7 mps 746 mmHg 54%
    06:00 +11°C° 0 mm 7 mps 746 mmHg 56%
    07:00 +11°C° 0 mm 8 mps 747 mmHg 57%
    08:00 +11°C° 0 mm 7 mps 747 mmHg 54%
    09:00 +12°C° 0 mm 7 mps 748 mmHg 52%
    10:00 +14°C° 0 mm 7 mps 748 mmHg 49%
    11:00 +14°C° 0 mm 7 mps 748 mmHg 46%
    12:00 +15°C° 0 mm 7 mps 748 mmHg 43%
    13:00 +16°C° 0 mm 6 mps 748 mmHg 40%
    14:00 +16°C° 0 mm 6 mps 748 mmHg 37%
    15:00 +17°C° 0 mm 6 mps 748 mmHg 35%
    16:00 +17°C° 0 mm 6 mps 748 mmHg 32%
    17:00 +17°C° 0 mm 5 mps 748 mmHg 32%
    18:00 +16°C° 0 mm 5 mps 748 mmHg 32%
    19:00 +16°C° 0 mm 5 mps 748 mmHg 32%
    20:00 +16°C° 0 mm 5 mps 749 mmHg 33%
    21:00 +15°C° 0 mm 4 mps 749 mmHg 35%
    22:00 +15°C° 0 mm 4 mps 749 mmHg 36%
    23:00 +14°C° 0 mm 4 mps 749 mmHg 37%

    25 April, Thursday

    Time Temperature Precipitation Wind Pressure Humidity
    00:00 +14°C° 0 mm 3 mps 749 mmHg 39%
    01:00 +13°C° 0 mm 3 mps 749 mmHg 40%
    02:00 +13°C° 0 mm 3 mps 749 mmHg 41%
    03:00 +12°C° 0 mm 3 mps 749 mmHg 42%
    04:00 +13°C° 0 mm 2 mps 749 mmHg 43%
    05:00 +14°C° 0 mm 2 mps 749 mmHg 41%
    06:00 +14°C° 0 mm 2 mps 750 mmHg 39%
    07:00 +15°C° 0 mm 2 mps 750 mmHg 37%
    08:00 +15°C° 0 mm 2 mps 750 mmHg 34%
    09:00 +16°C° 0 mm 2 mps 750 mmHg 30%
    10:00 +17°C° 0 mm 2 mps 750 mmHg 27%
    11:00 +18°C° 0 mm 2 mps 750 mmHg 25%
    12:00 +18°C° 0 mm 2 mps 750 mmHg 24%
    13:00 +19°C° 0 mm 2 mps 749 mmHg 23%
    14:00 +19°C° 0 mm 2 mps 749 mmHg 22%
    15:00 +20°C° 0 mm 2 mps 749 mmHg 21%
    16:00 +20°C° 0 mm 2 mps 748 mmHg 21%
    17:00 +19°C° 0 mm 2 mps 748 mmHg 21%
    18:00 +19°C° 0 mm 2 mps 749 mmHg 22%
    19:00 +19°C° 0 mm 3 mps 749 mmHg 23%
    20:00 +18°C° 0 mm 3 mps 749 mmHg 24%
    21:00 +18°C° 0 mm 2 mps 749 mmHg 25%
    22:00 +17°C° 0 mm 2 mps 749 mmHg 26%
    23:00 +17°C° 0 mm 2 mps 749 mmHg 28%

    26 April, Friday

    Time Temperature Precipitation Wind Pressure Humidity
    00:00 +16°C° 0 mm 2 mps 749 mmHg 29%
    01:00 +16°C° 0 mm 2 mps 748 mmHg 30%
    02:00 +15°C° 0 mm 2 mps 748 mmHg 31%
    03:00 +14°C° 0 mm 3 mps 748 mmHg 33%
    04:00 +13°C° 0 mm 3 mps 748 mmHg 34%
    05:00 +14°C° 0 mm 3 mps 748 mmHg 33%
    06:00 +14°C° 0 mm 3 mps 749 mmHg 32%
    07:00 +16°C° 0 mm 3 mps 749 mmHg 31%
    08:00 +17°C° 0 mm 2 mps 749 mmHg 28%
    09:00 +18°C° 0 mm 2 mps 749 mmHg 25%
    10:00 +20°C° 0 mm 1 mps 749 mmHg 22%
    11:00 +21°C° 0 mm 1 mps 749 mmHg 21%
    12:00 +21°C° 0 mm 1 mps 748 mmHg 21%
    13:00 +21°C° 0 mm 2 mps 748 mmHg 20%
    14:00 +21°C° 0 mm 2 mps 748 mmHg 20%
    15:00 +21°C° 0 mm 2 mps 747 mmHg 20%
    16:00 +22°C° 0 mm 3 mps 747 mmHg 20%
    17:00 +21°C° 0 mm 3 mps 747 mmHg 21%
    18:00 +20°C° 0 mm 3 mps 748 mmHg 22%
    19:00 +20°C° 0 mm 3 mps 748 mmHg 23%
    20:00 +19°C° 0 mm 3 mps 748 mmHg 24%
    21:00 +19°C° 0 mm 3 mps 748 mmHg 25%
    22:00 +18°C° 0 mm 3 mps 749 mmHg 26%
    23:00 +18°C° 0 mm 3 mps 748 mmHg 27%

    27 April, Saturday

    Time Temperature Precipitation Wind Pressure Humidity
    00:00 +17°C° 0 mm 3 mps 748 mmHg 29%
    01:00 +17°C° 0 mm 3 mps 748 mmHg 30%
    02:00 +16°C° 0 mm 3 mps 748 mmHg 31%
    03:00 +16°C° 0 mm 3 mps 748 mmHg 33%
    04:00 +14°C° 0 mm 3 mps 748 mmHg 34%
    05:00 +16°C° 0 mm 3 mps 749 mmHg 34%
    06:00 +15°C° 0 mm 4 mps 749 mmHg 33%
    07:00 +17°C° 0 mm 4 mps 749 mmHg 33%
    08:00 +18°C° 0 mm 4 mps 750 mmHg 29%
    09:00 +19°C° 0 mm 4 mps 750 mmHg 25%
    10:00 +21°C° 0 mm 3 mps 750 mmHg 22%
    11:00 +21°C° 0 mm 3 mps 750 mmHg 21%
    12:00 +22°C° 0 mm 4 mps 749 mmHg 20%
    13:00 +22°C° 0 mm 4 mps 749 mmHg 19%
    14:00 +23°C° 0 mm 4 mps 748 mmHg 19%
    15:00 +23°C° 0 mm 4 mps 748 mmHg 18%
    16:00 +23°C° 0 mm 5 mps 748 mmHg 18%
    17:00 +22°C° 0 mm 4 mps 748 mmHg 19%
    18:00 +22°C° 0 mm 4 mps 748 mmHg 21%
    19:00 +21°C° 0 mm 3 mps 748 mmHg 22%
    20:00 +20°C° 0 mm 3 mps 748 mmHg 23%
    21:00 +20°C° 0 mm 3 mps 748 mmHg 24%
    22:00 +19°C° 0 mm 2 mps 748 mmHg 26%
    23:00 +19°C° 0 mm 2 mps 748 mmHg 26%
    Show more